Location: Brno
(49.2000°N, 16.6330°E)
Time: 10:52:25
(UTC+01:00)

RESURS DK-1 - Visible Passes

Search period start: 17 December 2017 00:00
Search period end: 27 December 2017 00:00
Orbit: 558 x 561 km, 69.9° (Epoch: 17 December)

Date Brightness Start Highest point End Pass type
(mag) Time Alt. Az. Time Alt. Az. Time Alt. Az.
17 Dec 4.7 17:43:50 10° SE 17:43:57 10° SE 17:43:57 10° SE visible
17 Dec 5.1 19:19:28 10° SW 19:19:55 13° SW 19:19:55 13° SW visible
18 Dec 4.1 17:41:33 10° SSE 17:43:21 17° SE 17:43:21 17° SE visible
18 Dec 4.8 19:18:05 10° SW 19:19:18 19° SW 19:19:18 19° SW visible
19 Dec 3.6 17:39:30 10° SSE 17:42:41 24° ESE 17:42:41 24° ESE visible
19 Dec 4.6 19:16:46 10° SW 19:18:38 24° WSW 19:18:38 24° WSW visible
20 Dec 3.2 17:37:36 10° S 17:41:15 31° ESE 17:41:55 29° E visible
20 Dec 4.5 19:15:31 10° WSW 19:17:52 26° W 19:17:52 26° W visible
21 Dec 2.8 17:35:49 10° S 17:39:41 41° ESE 17:41:05 30° ENE visible
21 Dec 4.5 19:14:21 10° WSW 19:17:02 25° WNW 19:17:02 25° WNW visible
22 Dec 2.5 17:34:07 10° SSW 17:38:08 54° ESE 17:40:10 27° NE visible
22 Dec 4.6 19:13:15 10° W 19:16:06 22° NW 19:16:06 22° NW visible
23 Dec 2.3 17:32:31 10° SSW 17:36:37 73° ESE 17:39:11 22° NE visible
23 Dec 4.8 19:12:15 10° W 19:15:07 18° NW 19:15:07 18° NW visible
24 Dec 2.3 17:31:00 10° SSW 17:35:07 86° WNW 17:38:07 18° NNE visible
24 Dec 4.9 19:11:21 10° WNW 19:13:50 15° NW 19:14:03 15° NW visible
25 Dec 2.7 17:29:32 10° SW 17:33:38 66° WNW 17:37:01 15° NNE visible
25 Dec 5.1 19:10:37 10° WNW 19:12:32 13° NW 19:12:56 13° NNW visible
26 Dec 3.1 17:28:10 10° SW 17:32:12 51° NW 17:35:51 12° NNE visible
26 Dec 5.2 19:10:10 10° NW 19:11:15 11° NNW 19:11:47 11° NNW visible
